Moose, Wyoming, United States (83012)
Lat: 43.66N, Lon: 110.72W
Wx Zone: WYZ013
Local Info
Past Weather Observations for Friday, August 28, 2015

NOTE: This archive is for the closest National Weather Service station to Moose. Information may differ from the station used for current weather conditions.

Click here for Long-term Archive

Time Weather Temperature Dewpoint Humidity Pressure Winds Precip Visibility
23:55
Clear
50°F / 10°C 45°F / 7°C 82% 30.27 in
(1025 mb)
N 6.9 mph
(N 11 kph)
- 10SM
23:35
Clear
50°F / 10°C 45°F / 7°C 82% 30.27 in
(1025 mb)
N 6.9 mph
(N 11 kph)
- 10SM
22:55
Clear
54°F / 12°C 46°F / 8°C 77% 30.27 in
(1025 mb)
N 4.6 mph
(N 7 kph)
- 10SM
22:15
Clear
54°F / 12°C 46°F / 8°C 77% 30.27 in
(1025 mb)
Calm - 10SM
21:55
Clear
54°F / 12°C 46°F / 8°C 77% 30.27 in
(1025 mb)
N 5.8 mph
(N 9 kph)
- 10SM
21:15
Clear
55°F / 13°C 50°F / 10°C 82% 30.27 in
(1025 mb)
N 4.6 mph
(N 7 kph)
- 10SM
20:55
Clear
55°F / 13°C 48°F / 9°C 77% 30.27 in
(1025 mb)
NW 3.5 mph
(NW 6 kph)
- 10SM
20:35
Clear
66°F / 19°C 43°F / 6°C 43% 30.27 in
(1025 mb)
Calm - 10SM
20:15
Clear
68°F / 20°C 43°F / 6°C 40% 30.27 in
(1025 mb)
E 3.5 mph
(E 6 kph)
- 10SM
19:55
Partly Cloudy
70°F / 21°C 43°F / 6°C 38% 30.24 in
(1024 mb)
E 3.5 mph
(E 6 kph)
- 10SM
19:35
Mostly Cloudy
68°F / 20°C 45°F / 7°C 43% 30.24 in
(1024 mb)
Calm - 10SM
19:15
Partly Cloudy
72°F / 22°C 43°F / 6°C 36% 30.24 in
(1024 mb)
SW 3.5 mph
(SW 6 kph)
- 10SM
18:55
Clear
72°F / 22°C 43°F / 6°C 36% 30.24 in
(1024 mb)
S 6.9 mph
(S 11 kph)
- 10SM
18:51
Clear
72°F / 22°C 43°F / 6°C 36% 30.24 in
(1024 mb)
S 6.9 mph
(S 11 kph)
- 10SM
18:35
Clear
72°F / 22°C 43°F / 6°C 36% 30.24 in
(1024 mb)
S 6.9 mph
(S 11 kph)
- 10SM
18:15
Clear
75°F / 24°C 41°F / 5°C 29% 30.24 in
(1024 mb)
S 6.9 mph
(S 11 kph)
- 10SM
17:55
Clear
77°F / 25°C 39°F / 4°C 26% 30.24 in
(1024 mb)
S 6.9 mph
(S 11 kph)
- 10SM
17:51
Clear
79°F / 26°C 39°F / 4°C 24% 30.24 in
(1024 mb)
SW 9.2 mph
(SW 15 kph)
- 10SM
17:35
Partly Cloudy
79°F / 26°C 36°F / 2°C 21% 30.24 in
(1024 mb)
SSW 4.6 mph
(SSW 7 kph)
- 10SM
17:15
Partly Cloudy
79°F / 26°C 37°F / 3°C 23% 30.24 in
(1024 mb)
W 8.1 mph
(W 13 kph)
- 10SM
16:55
Partly Cloudy
79°F / 26°C 37°F / 3°C 23% 30.24 in
(1024 mb)
SSW 4.6 mph
(SSW 7 kph)
- 10SM
16:51
Clear
79°F / 26°C 37°F / 3°C 23% 30.24 in
(1024 mb)
SW 4.6 mph
(SW 7 kph)
- 10SM
16:35
Partly Cloudy
79°F / 26°C 37°F / 3°C 23% 30.24 in
(1024 mb)
SW 6.9 mph
(SW 11 kph)
- 10SM
16:15
Mostly Cloudy
79°F / 26°C 36°F / 2°C 21% 30.24 in
(1024 mb)
SSW 10.4 mph
(SSW 17 kph)
- 10SM
15:55
Mostly Cloudy
81°F / 27°C 36°F / 2°C 20% 30.24 in
(1024 mb)
SW 6.9 mph
(SW 11 kph)
- 10SM
15:51
Clear
N/A N/A N/A 30.24 in
(1024 mb)
SW 11.5 mph
(SW 19 kph)
- 10SM
15:35
Fair
79°F / 26°C 36°F / 2°C 21% 30.24 in
(1024 mb)
SW 10.4 mph
(SW 17 kph)
-
14:55
Clear
81°F / 27°C 30°F / -1°C 16% 30.27 in
(1025 mb)
SW 11.5 mph
(SW 19 kph)
- 10SM
14:51
Clear
81°F / 27°C 30°F / -1°C 16% 30.27 in
(1025 mb)
SW 11.5 mph
(SW 19 kph)
- 10SM
14:35
Clear
81°F / 27°C 32°F / 0°C 17% 30.27 in
(1025 mb)
SW 6.9 mph
(SW 11 kph)
- 10SM
14:15
Partly Cloudy
81°F / 27°C 34°F / 1°C 18% 30.27 in
(1025 mb)
SE 4.6 mph
(SE 7 kph)
- 10SM
13:55
Clear
79°F / 26°C 34°F / 1°C 20% 30.27 in
(1025 mb)
ENE 3.5 mph
(ENE 6 kph)
- 10SM
13:51
Clear
79°F / 26°C 36°F / 2°C 21% 30.27 in
(1025 mb)
Calm - 10SM
13:35
Clear
79°F / 26°C 36°F / 2°C 21% 30.3 in
(1026 mb)
Calm - 10SM
13:15
Clear
77°F / 25°C 37°F / 3°C 24% 30.3 in
(1026 mb)
Calm - 10SM
12:55
Clear
79°F / 26°C 39°F / 4°C 24% 30.3 in
(1026 mb)
S 3.5 mph
(S 6 kph)
- 10SM
12:51
Clear
77°F / 25°C 39°F / 4°C 26% 30.3 in
(1026 mb)
SE 6.9 mph
(SE 11 kph)
- 10SM
12:35
Clear
75°F / 24°C 43°F / 6°C 31% 30.3 in
(1026 mb)
S 5.8 mph
(S 9 kph)
- 10SM
12:15
Clear
73°F / 23°C 46°F / 8°C 38% 30.33 in
(1027 mb)
S 4.6 mph
(S 7 kph)
- 10SM
11:55
Clear
72°F / 22°C 46°F / 8°C 41% 30.33 in
(1027 mb)
Calm - 10SM
11:35
Clear
70°F / 21°C 48°F / 9°C 46% 30.33 in
(1027 mb)
Calm - 10SM
11:15
Clear
66°F / 19°C 46°F / 8°C 49% 30.36 in
(1028 mb)
SSE 3.5 mph
(SSE 6 kph)
- 10SM
10:55
Clear
66°F / 19°C 46°F / 8°C 49% 30.36 in
(1028 mb)
SSE 3.5 mph
(SSE 6 kph)
- 10SM
10:51
Clear
64°F / 18°C 46°F / 8°C 52% 30.36 in
(1028 mb)
Calm - 10SM
10:35
Clear
64°F / 18°C 46°F / 8°C 52% 30.36 in
(1028 mb)
Calm - 10SM
10:15
Clear
64°F / 18°C 46°F / 8°C 52% 30.36 in
(1028 mb)
S 3.5 mph
(S 6 kph)
- 10SM
09:55
Clear
63°F / 17°C 46°F / 8°C 56% 30.36 in
(1028 mb)
SW 4.6 mph
(SW 7 kph)
- 10SM
09:51
Clear
61°F / 16°C 45°F / 7°C 55% 30.36 in
(1028 mb)
Calm - 10SM
09:35
Clear
61°F / 16°C 46°F / 8°C 59% 30.36 in
(1028 mb)
S 3.5 mph
(S 6 kph)
- 10SM
09:15
Clear
59°F / 15°C 46°F / 8°C 63% 30.36 in
(1028 mb)
Calm - 10SM
08:55
Clear
55°F / 13°C 46°F / 8°C 72% 30.39 in
(1029 mb)
Calm - 10SM
08:54
Clear
55°F / 13°C 46°F / 8°C 72% 30.39 in
(1029 mb)
Calm - 10SM
08:35
Clear
54°F / 12°C 46°F / 8°C 77% 30.39 in
(1029 mb)
Calm - 10SM
08:15
Clear
52°F / 11°C 45°F / 7°C 77% 30.39 in
(1029 mb)
Calm - 10SM
07:55
Clear
50°F / 10°C 45°F / 7°C 82% 30.39 in
(1029 mb)
Calm - 10SM
07:52
Clear
50°F / 10°C 45°F / 7°C 82% 30.39 in
(1029 mb)
Calm - 10SM
07:35
Clear
48°F / 9°C 45°F / 7°C 87% 30.39 in
(1029 mb)
Calm - 10SM
07:15
Clear
46°F / 8°C 45°F / 7°C 93% 30.39 in
(1029 mb)
Calm - 10SM
06:55
Clear
45°F / 7°C 43°F / 6°C 93% 30.39 in
(1029 mb)
Calm - 10SM
06:51
Clear
46°F / 8°C 46°F / 8°C 100% 30.39 in
(1029 mb)
Calm - 10SM
06:35
Clear
43°F / 6°C 43°F / 6°C 100% 30.36 in
(1028 mb)
Calm - 9SM
06:15
Clear
43°F / 6°C 43°F / 6°C 100% 30.36 in
(1028 mb)
N 3.5 mph
(N 6 kph)
- 9SM
05:55
Clear
41°F / 5°C 41°F / 5°C 100% 30.36 in
(1028 mb)
Calm - 7SM
05:51
Clear
43°F / 6°C 43°F / 6°C 100% 30.36 in
(1028 mb)
Calm - 10SM
05:35
Clear
43°F / 6°C 43°F / 6°C 100% 30.36 in
(1028 mb)
NNW 3.5 mph
(NNW 6 kph)
- 8SM
05:15
Clear
43°F / 6°C 43°F / 6°C 100% 30.36 in
(1028 mb)
NW 3.5 mph
(NW 6 kph)
- 10SM
04:55
Clear
43°F / 6°C 43°F / 6°C 100% 30.36 in
(1028 mb)
Calm - 10SM
04:35
Clear
43°F / 6°C 43°F / 6°C 100% 30.36 in
(1028 mb)
Calm - 10SM
04:15
Clear
43°F / 6°C 43°F / 6°C 100% 30.36 in
(1028 mb)
Calm - 10SM
03:55
Clear
43°F / 6°C 41°F / 5°C 93% 30.36 in
(1028 mb)
N 5.8 mph
(N 9 kph)
- 10SM
03:35
Clear
43°F / 6°C 43°F / 6°C 100% 30.33 in
(1027 mb)
N 3.5 mph
(N 6 kph)
- 10SM
03:15
Clear
45°F / 7°C 43°F / 6°C 93% 30.33 in
(1027 mb)
NNW 5.8 mph
(NNW 9 kph)
- 10SM
02:55
Clear
45°F / 7°C 43°F / 6°C 93% 30.33 in
(1027 mb)
NW 3.5 mph
(NW 6 kph)
- 10SM
02:35
Clear
43°F / 6°C 43°F / 6°C 100% 30.33 in
(1027 mb)
N 5.8 mph
(N 9 kph)
- 10SM
02:15
Clear
45°F / 7°C 45°F / 7°C 100% 30.33 in
(1027 mb)
N 5.8 mph
(N 9 kph)
- 10SM
01:55
Clear
45°F / 7°C 45°F / 7°C 100% 30.33 in
(1027 mb)
N 6.9 mph
(N 11 kph)
- 10SM
01:35
Clear
45°F / 7°C 43°F / 6°C 93% 30.33 in
(1027 mb)
NE 3.5 mph
(NE 6 kph)
- 10SM
01:15
Clear
46°F / 8°C 45°F / 7°C 93% 30.33 in
(1027 mb)
N 5.8 mph
(N 9 kph)
- 10SM
00:55
Clear
48°F / 9°C 45°F / 7°C 87% 30.33 in
(1027 mb)
N 4.6 mph
(N 7 kph)
- 10SM
00:35
Clear
52°F / 11°C 45°F / 7°C 77% 30.33 in
(1027 mb)
Calm - 10SM
00:15
Clear
54°F / 12°C 45°F / 7°C 72% 30.33 in
(1027 mb)
Calm - 10SM
Time Weather Temperature Dewpoint Humidity Pressure Winds Precip Visibility


Weather for websites

WeatherForYou.com, LLC is not responsible for any damages or problems caused by this service. Current weather conditions are obtained from the closest station including government and personal stations which may have varying degrees of accuracy. Weather forecasts are derived from the NOAA NDFD. Like all things, this site belongs to Jesus Christ... He just trusts us to maintain it. If you have any questions or comments email webmaster@weatherforyou.com

Copyright © 2015, WeatherForYou.com LLC. All rights reserved.